User: anonymous   Login
Location: Ferchesar
(52.6477°N, 12.4298°E)
Time: 19:58:26
(UTC+01:00)
Language:

Vanguard 2 - Orbit

View from above orbital plane
View from above orbital plane
View from above satellite
View from above satellite

Ground track
Ground track

The orbit data is extracted from the following two-line orbital elements,

1 00011U 59001A   21337.39390899  .00000352  00000-0  19194-3 0  9990
2 00011  32.8642 210.4876 1465891  26.0983 340.6601 11.85816751338376
Epoch (UTC): 03 December 2021 09:27:13
Eccentricity: 0.1465891
inclination: 32.8642°
perigee height: 554 km
apogee height: 2936 km
right ascension of ascending node: 210.4876°
argument of perigee: 26.0983°
revolutions per day: 11.85816751
mean anomaly at epoch: 340.6601°
orbit number at epoch: 33837

The dashed part of the orbit path shows where the satellite is in the earth's shadow,  

DLR